STARLINK-1735, 46565

Orbit data source: Space-Track

STARLINK-1735, 46565 is a payload satellite owned by SpaceX/Seattle (US) in LEO that was launched on Tue, 06 Oct 2020 UTC via an FALCON 9 launch vehicle from the Air Force Eastern Test Range (AFETR). Payload-class satellites include a variety of spacecraft equipped with specific instruments for various scientific and technological missions. These include communications satellites like Starlink; space stations such as the ISS; scientific satellites like the Hubble; Earth observation satellites from companies like Planet Labs, Umbra, and HawkEye 360; GPS; miniature CubeSats for education and research; and military/defense satellites.

Loading next visibility...
Identifier
46565, 2020-070AK
Orbit
LEO
Last TLE update
12 hours ago
Origin
Manufacturer
SpaceX/Seattle
Mission
Operational Commercial Communications
Bus & Motor
STARLINK, Unknown motor
Mass
260 kg wet, ~248 kg dry
Launch date (UTC)
2020-10-06 (5 years ago)
Launch vehicle
FALCON 9
Launch site
Air Force Eastern Test Range (AFETR)
Object type
Payload
Rocket body
Debris
Shape & HBR
Box + 1 Pan, 8.86 m
Radar Cross Section
13.562 m², Large (>1 m²)

Expand to show TLE details & history

TLE from 12 hours ago
0 STARLINK-1735
1 46565U 20070AK  25181.78481992  .00000879  00000-0  77864-4 0  9990
2 46565  53.0549 207.4657 0000927  83.2165 276.8929 15.06396094261812
Epoch: 2025-06-30T18:50Z
TLE epoch observation values (Epoch: 2025-06-30T18:50:08.441Z)
Latitude
-0.00004°
Longitude
5.84085°
Altitude
548.026 km
Speed
7.589 km/s
True Right ascension
13h 49m 51s
True Declination
0° 00' 00"
Sunlit
Object was in daylight at epoch
Visualization orbit readout
Latitude
47.63922°
Longitude
128.55558°
Altitude
551.933 km
Speed
7.592 km/s
Apparent Right ascension
02h 13m 06s
Apparent Declination
12° 21' 46"
Sunlit
Object is in daylight
Visualization observer readout
Local Sidereal Time
18:06:35
Azimuth
59.348° ENE
Elevation
-14.803°
Doppler factor
1
Orbital elements
Apogee altitude
548.136 km
Perigee altitude
546.852 km
Semi-major axis
6,925.631 km
Eccentricity
0.00009
Inclination
53.0549°
RAAN
207.4657°
Arg. of periapsis
83.2165°
True anomaly
Unknown
Mean anomaly
276.8929°
Eccentric anomaly
Unknown
Mean motion
3.76577 °/min
Orbital period
95.6 mins
BSTAR
0.000077864
Loading maneuver chart data...
Loading SW <> Apogee altitude chart data...
Loading historical data...
Loading historical data...
Loading historical data...
Loading historical data...
Loading historical data...
Loading historical data...
Loading historical data...

STARLINK-1735 Visibility forecast

Observer location: undefined°, undefined°

Span
Click to sort rows by Start time (UTC) header in descending order
Start Az.
Max El. time (UTC)
Max El. Az.
Max El.
End time (UTC)
End Az.
4 mins2025-07-01 09:37:47.995Z358.452° N2025-07-01 09:38:47.995Z18.287° NNE19.114°2025-07-01 09:41:47.995Z67.918° E
6 mins2025-07-01 11:16:47.995Z313.156° NW2025-07-01 11:18:47.995Z355.269° N44.618°2025-07-01 11:22:47.995Z128.093° SE
6 mins2025-07-02 04:28:47.995Z241.165° WSW2025-07-02 04:30:47.995Z286.427° WNW42.949°2025-07-02 04:34:47.995Z46.36° ENE
4 mins2025-07-02 06:09:47.995Z314.957° NW2025-07-02 06:10:47.995Z333.209° NNW17.833°2025-07-02 06:13:47.995Z23.692° NE
|